GFSNGP_925_rhum_168.txt.gz
RH
52 49 48 49 47 49 76 64 66 75 78 53 54 65 60 40 38 36 34 35 36 40 42 42 46 52 63 71 71 62 53 52 51 54 55 54 56 59 64 71 77 83 84 82
60 52 55 61 52 52 47 52 56 52 56 37 35 36 37 34 34 35 34 32 34 36 39 40 43 49 61 68 69 60 55 54 54 56 57 55 58 60 64 66 71 76 74 70
71 50 49 49 41 44 50 46 46 57 42 32 34 29 29 33 34 34 34 31 32 34 36 40 42 49 59 62 65 60 56 52 54 54 56 55 57 59 62 66 71 71 72 71
73 52 63 39 35 38 46 43 44 41 37 33 31 29 30 29 30 29 29 29 28 29 33 34 42 54 60 63 62 60 58 57 55 53 55 58 60 59 62 69 72 72 71 72
74 71 46 39 44 44 46 35 33 40 39 38 32 35 33 27 25 29 30 30 31 32 34 36 42 49 59 60 60 55 54 53 54 52 55 58 56 59 63 71 72 73 73 76
71 81 71 36 50 39 41 46 36 51 41 39 40 52 43 32 32 34 34 34 35 36 37 42 44 49 60 58 58 56 56 55 54 52 56 54 55 58 62 70 70 72 70 64
76 82 57 38 39 42 74 61 46 43 41 43 49 44 38 36 38 37 38 38 40 43 44 44 44 52 60 59 61 61 64 64 61 54 54 54 54 58 62 67 70 70 70 70
77 85 83 36 44 69 52 41 40 43 42 46 44 43 43 42 42 42 41 41 42 44 46 48 52 62 65 67 49 59 65 68 66 62 54 50 58 58 63 64 64 59 61 64
57 55 38 39 38 40 40 42 45 45 43 44 45 45 43 45 44 42 41 41 41 43 47 47 52 60 65 47 49 52 66 71 70 66 62 56 58 58 59 63 71 64 58 61
59 43 44 40 36 35 36 44 44 44 44 44 46 44 45 44 43 43 42 42 42 45 47 45 45 47 46 42 47 59 60 68 71 68 64 60 58 60 60 59 59 63 64 62
50 43 41 40 41 43 46 46 46 43 44 47 48 48 47 45 44 42 43 45 47 49 49 46 45 46 46 43 52 61 70 73 71 70 67 64 59 54 56 51 51 57 65 66
60 42 42 44 42 45 50 50 47 49 50 48 49 49 46 44 42 44 45 46 45 45 46 44 44 45 46 49 50 65 70 71 70 70 69 68 65 65 69 65 62 55 77 92
48 40 43 48 47 47 50 49 48 51 50 50 45 42 42 40 37 43 42 43 42 42 46 48 49 48 48 49 54 57 70 66 67 73 72 72 71 69 65 64 57 82 95 94
46 50 58 48 49 47 50 49 49 49 47 44 42 39 35 35 34 36 36 40 44 48 50 52 53 53 50 50 58 65 71 74 74 70 71 73 73 71 68 63 60 65 83 91
51 50 52 49 52 50 50 49 50 40 33 32 33 35 37 37 40 44 48 52 56 56 55 55 57 57 55 55 60 67 69 69 69 72 76 76 75 74 70 67 65 62 62 70
54 56 57 56 51 52 50 44 42 37 37 38 39 38 38 42 47 51 56 59 60 61 62 64 64 62 62 62 63 67 69 67 75 77 77 80 79 78 74 71 68 66 67 69
54 52 52 52 50 47 47 44 44 44 43 44 42 41 48 52 56 55 55 60 65 69 69 70 69 68 69 68 68 68 67 72 81 83 83 80 80 80 80 77 76 76 77 74
48 48 48 49 48 48 47 44 45 49 51 48 49 52 55 55 53 57 60 66 73 75 72 70 70 72 75 76 76 75 73 74 76 79 81 85 84 84 84 85 85 84 82 81
51 50 50 50 48 50 53 48 50 54 51 51 55 57 60 62 58 61 66 72 74 77 69 68 73 79 83 81 79 81 80 79 77 78 81 86 89 89 90 91 91 89 87 86
48 53 54 55 60 63 58 49 50 53 54 55 59 63 64 61 60 64 69 73 72 77 79 79 80 83 84 84 85 86 84 83 80 77 78 85 89 91 94 95 93 93 91 90
69 63 60 56 60 59 61 56 55 55 58 60 65 68 69 69 70 71 73 68 59 67 75 78 79 80 82 86 92 93 89 86 86 83 85 85 86 90 91 92 97 100 98 98
74 76 70 68 70 71 68 64 62 63 65 65 66 72 76 77 73 72 70 74 69 70 80 84 85 84 88 94 99 98 96 94 94 93 92 98 99 96 90 96 100 99 99 99
49 59 64 62 64 65 65 66 68 71 72 73 76 77 78 77 74 73 72 57 63 71 78 86 92 92 94 98 100 100 99 99 100 100 99 96 94 92 95 99 100 99 99 100
58 60 57 56 59 67 69 62 61 67 73 77 80 80 85 83 77 72 73 76 76 76 80 81 84 88 94 100 100 100 100 100 100 100 100 100 100 99 100 100 100 98 99 100
59 62 63 67 70 66 65 67 68 74 75 78 80 80 85 86 86 70 71 73 78 81 81 74 78 96 100 99 100 100 100 100 100 100 100 100 100 100 100 100 99 98 98 97
69 64 58 59 62 59 55 56 63 62 65 70 73 73 75 76 78 80 79 78 78 73 73 74 97 100 97 100 100 100 100 100 100 100 100 100 100 100 99 98 98 98 97 97
60 62 65 64 63 66 71 72 72 73 74 76 76 73 73 72 74 77 81 81 76 69 70 87 100 100 100 100 100 100 100 100 100 100 100 100 99 99 98 98 98 98 97 97

GFSNGP_925_rhum_174.txt.gz
RH
53 49 48 52 54 57 67 65 76 73 79 64 58 60 59 42 42 42 41 41 41 44 49 38 34 34 38 40 44 53 64 65 58 52 49 45 42 39 41 46 48 53 57 63
65 54 54 60 52 51 48 53 59 54 57 40 40 40 44 47 44 43 43 40 41 42 40 39 36 34 35 40 41 52 65 65 61 56 53 49 44 42 42 45 46 52 55 61
84 57 60 70 50 47 45 44 43 55 42 35 37 40 48 46 45 45 43 42 41 40 39 39 36 35 35 34 39 51 62 65 63 59 57 52 48 46 45 43 45 49 51 58
86 71 82 48 30 36 42 39 38 39 36 35 38 45 42 42 46 48 44 43 41 40 40 39 39 39 40 37 37 44 53 58 60 60 59 56 53 50 47 44 46 47 50 56
90 89 65 49 41 41 45 45 36 37 33 37 48 52 50 44 45 45 46 41 41 41 42 42 41 41 41 42 42 44 48 52 54 53 53 56 56 55 52 50 49 47 47 56
75 91 92 41 36 35 44 76 40 44 48 49 53 73 60 50 45 44 40 41 43 42 42 42 42 43 45 46 48 47 47 50 51 52 52 54 53 54 54 52 50 50 50 49
87 88 78 45 41 37 71 64 45 42 46 52 60 60 54 49 46 40 42 42 41 41 43 42 42 43 46 48 51 47 50 52 55 56 57 57 56 57 57 54 53 53 51 47
80 82 90 44 44 57 56 42 42 47 48 51 54 54 53 51 49 49 47 42 41 43 44 44 43 43 44 46 41 46 50 54 55 55 56 59 63 62 60 56 55 54 53 50
70 72 46 40 42 40 41 46 47 49 50 50 56 56 51 50 52 49 41 39 38 42 44 44 42 38 40 39 41 43 45 48 51 55 60 61 66 65 61 59 56 56 54 53
52 48 44 40 40 39 39 44 49 46 50 51 56 52 52 54 51 46 38 36 36 40 43 43 37 38 40 40 40 44 48 48 50 57 59 61 66 66 65 60 58 58 58 58
60 51 46 42 39 38 41 45 48 49 48 50 51 55 53 49 45 39 36 35 35 36 37 40 44 48 50 50 50 50 53 54 53 57 60 64 65 66 65 62 60 61 60 58
67 50 50 47 43 43 48 52 51 49 51 50 51 52 42 44 39 37 35 37 36 38 40 43 47 51 54 52 55 58 60 60 60 61 63 65 68 70 64 63 62 61 60 61
52 45 46 44 41 45 52 54 46 48 50 55 45 43 42 41 33 34 35 33 35 39 42 47 50 53 52 54 58 61 65 68 68 67 67 67 65 68 73 67 63 62 62 64
45 48 53 48 50 46 46 46 45 47 43 44 44 34 32 35 34 36 36 35 38 43 47 48 48 51 52 56 62 66 68 72 74 73 72 73 75 75 70 72 75 73 66 69
50 48 52 50 51 52 46 49 48 56 50 37 33 33 34 38 40 39 38 39 42 46 44 42 46 51 49 55 65 69 71 76 77 79 79 78 78 80 81 80 80 80 77 72
56 54 55 56 56 50 48 48 52 50 43 41 41 40 38 38 40 41 41 42 48 49 48 48 48 41 45 54 65 72 73 78 82 84 86 86 85 86 85 87 86 84 83 80
61 64 55 53 52 48 46 44 43 46 44 41 43 41 39 42 45 45 43 41 44 48 52 53 50 45 49 54 60 66 81 86 86 85 90 89 88 88 88 87 88 85 86 81
55 51 51 50 49 46 42 37 37 38 41 40 40 46 43 47 50 45 42 43 49 55 57 57 50 43 47 47 53 73 86 87 89 89 78 80 84 88 89 89 89 90 87 85
52 50 46 43 42 40 39 36 35 40 46 51 54 54 45 41 43 45 47 51 56 61 58 55 49 47 50 48 52 68 82 90 90 90 86 85 88 88 89 91 95 94 93 92
66 56 45 49 46 38 41 44 49 53 52 48 46 49 48 45 45 48 48 52 53 53 50 55 55 58 55 54 56 70 81 80 78 85 91 97 98 97 96 98 100 100 100 100
61 57 66 71 68 61 58 57 62 55 48 48 49 50 50 48 49 50 57 65 56 48 56 55 58 60 63 62 65 72 80 86 84 79 85 94 97 96 97 99 100 100 100 100
71 81 85 81 79 72 63 58 57 58 59 60 61 62 60 59 58 59 61 65 57 56 59 64 63 62 63 65 77 86 86 86 80 80 88 98 93 98 97 98 98 99 100 100
49 52 52 52 54 56 54 56 66 74 73 69 68 67 67 66 65 67 69 56 58 55 59 64 65 68 72 82 81 86 89 86 80 84 96 100 99 99 99 98 99 100 100 100
60 58 58 55 54 58 66 59 60 62 63 63 68 69 74 76 74 73 75 73 69 72 77 71 68 70 75 83 88 90 86 83 84 96 100 99 99 100 99 99 100 100 100 100
67 68 68 69 72 72 69 66 66 66 66 67 64 62 63 65 76 67 72 75 76 77 81 78 78 78 83 83 87 85 81 82 87 99 100 100 100 100 100 100 100 100 100 100
73 73 69 65 64 63 65 68 71 69 69 69 67 66 66 66 66 69 70 73 77 76 78 78 79 80 83 86 86 84 84 84 99 100 99 100 100 100 99 100 100 100 99 99
64 64 63 62 60 60 62 65 68 68 66 68 70 67 67 69 73 76 76 77 78 78 77 77 79 81 84 86 86 86 89 100 99 100 100 99 99 99 99 99 99 99 99 99

GFSNGP_925_rhum_177.txt.gz
RH
62 60 59 58 57 65 75 67 70 65 77 51 59 68 59 53 52 51 49 50 49 52 54 45 43 41 39 37 37 40 44 51 57 61 60 54 51 48 44 40 38 40 42 45
73 58 63 71 63 60 57 56 61 51 54 36 39 46 49 50 54 52 54 52 49 48 45 45 43 44 42 41 40 38 46 52 55 63 62 58 54 52 48 45 42 41 40 45
87 69 72 78 62 57 55 55 53 66 50 43 37 40 44 49 52 55 55 50 49 47 45 45 46 46 44 44 41 40 42 54 60 62 61 56 56 57 53 49 46 44 41 43
92 80 78 49 36 39 50 46 43 44 43 40 37 36 45 49 49 54 54 49 47 46 47 46 45 44 44 44 44 45 45 49 52 58 60 56 55 56 55 54 52 49 46 45
93 94 67 52 39 40 42 42 41 41 38 39 39 55 55 47 49 51 53 48 45 44 44 43 43 44 45 43 44 44 46 48 51 54 55 55 56 54 53 56 56 54 50 48
86 93 88 53 38 40 44 70 44 41 45 49 54 74 58 50 52 52 44 44 45 43 42 41 42 45 46 44 46 46 47 47 48 50 56 58 56 56 57 57 57 57 54 52
91 92 83 56 48 40 64 58 47 45 45 48 62 63 56 56 55 47 46 46 41 40 41 40 40 43 45 41 44 42 42 44 46 48 50 54 58 60 60 61 60 60 58 55
88 97 94 50 45 54 50 47 42 44 48 55 59 58 57 59 58 52 52 44 38 39 38 36 38 41 42 42 42 43 45 48 48 46 50 52 58 60 63 65 64 62 61 59
72 72 48 48 44 43 48 50 47 51 55 56 57 58 60 59 56 55 47 41 34 36 36 35 36 40 44 46 48 50 52 54 54 54 53 54 59 61 66 67 68 66 66 65
62 54 51 48 46 44 45 47 48 53 54 54 59 60 61 59 60 53 42 39 36 36 38 39 38 44 47 48 52 54 56 60 61 64 67 65 63 63 70 72 73 70 68 68
65 54 52 49 50 48 47 48 51 52 56 55 57 59 59 60 51 42 40 37 35 38 39 40 39 42 44 49 56 56 61 65 66 68 70 71 71 72 72 70 70 70 69 67
67 49 55 52 47 48 55 55 52 58 58 55 56 61 58 50 42 42 40 34 37 35 37 38 41 43 45 44 46 56 64 68 70 74 74 75 76 76 74 73 71 72 69 68
58 50 54 49 48 47 50 49 52 57 57 58 54 53 47 48 41 37 36 38 39 37 36 39 42 47 41 37 46 55 62 69 73 78 80 80 81 84 86 82 82 78 72 71
50 52 60 58 61 53 56 50 49 50 50 51 49 47 43 38 34 37 39 37 37 38 40 43 46 45 41 39 44 52 57 66 76 79 80 86 89 92 91 92 90 88 83 78
60 61 62 57 53 54 51 52 54 59 58 48 38 38 40 43 42 42 39 41 41 43 45 46 47 45 39 41 44 52 57 71 72 75 84 88 91 93 92 89 89 91 90 89
58 56 56 61 60 56 54 53 55 55 52 51 50 46 45 46 46 46 42 42 48 44 42 47 50 46 42 46 49 50 53 58 69 79 89 94 95 87 77 71 73 76 80 86
64 69 68 65 61 56 53 49 51 53 52 48 46 45 44 46 47 47 45 45 44 42 42 46 49 47 46 48 52 49 56 58 69 76 87 93 90 92 86 76 72 76 86 87
59 56 49 46 46 46 45 41 40 43 45 39 38 41 45 49 53 52 49 46 46 49 48 49 50 50 50 48 51 54 59 66 70 81 88 88 80 78 85 88 90 92 92 93
69 67 54 51 47 48 50 46 38 38 39 43 47 51 52 54 55 56 52 49 49 53 50 45 43 48 51 48 57 63 66 66 76 82 88 81 80 80 81 92 98 97 92 95
70 61 58 53 54 54 64 64 53 53 52 55 60 59 54 50 48 49 50 50 49 49 48 52 56 57 56 53 56 62 68 72 80 85 87 85 81 77 85 92 99 95 98 98
71 63 65 65 66 69 73 67 60 57 53 54 58 58 56 55 55 56 60 63 56 55 56 57 60 62 63 63 63 69 75 81 86 88 93 91 80 75 85 94 95 97 99 100
75 77 72 64 70 68 62 62 64 63 62 62 61 62 65 66 66 68 68 70 65 64 66 69 69 66 67 68 78 83 86 90 93 94 94 90 77 82 91 96 100 99 99 100
70 70 60 59 62 62 58 58 58 61 66 67 69 71 73 71 69 73 75 65 67 69 72 76 78 78 80 88 89 86 87 91 94 95 93 82 82 92 99 99 99 99 100 100
68 69 66 58 58 64 74 63 62 63 66 67 71 70 75 77 75 74 75 72 70 72 74 77 81 81 85 88 88 90 92 94 94 95 93 85 88 99 100 99 99 100 100 100
64 66 69 73 77 74 70 68 71 75 77 75 72 69 70 71 79 68 69 70 71 74 80 76 77 83 89 91 89 88 90 93 95 93 92 94 99 100 99 99 99 100 100 100
65 64 63 65 64 59 60 64 69 68 71 74 74 73 74 74 73 73 72 74 75 77 83 82 83 83 84 86 88 90 93 94 93 94 96 100 99 99 99 99 99 99 99 99
63 70 76 74 68 69 72 75 77 77 72 72 74 70 69 71 74 76 77 79 81 82 83 83 83 84 87 88 90 92 92 93 96 99 99 98 99 99 99 98 98 98 99 99

GFSNGP_925_rhum_180.txt.gz
RH
65 61 57 55 58 65 82 70 65 60 74 47 57 66 55 52 52 55 56 57 58 60 59 50 47 46 46 46 45 43 42 42 46 54 61 64 62 58 54 52 49 45 42 42
80 65 68 75 69 66 61 58 65 53 54 37 36 44 48 51 52 57 58 58 57 56 51 50 49 50 49 47 45 45 44 45 50 59 64 64 61 59 57 55 54 50 48 45
91 71 76 77 64 66 67 63 56 69 51 44 47 42 43 46 52 53 58 58 58 54 50 48 47 48 48 48 46 44 45 45 46 50 53 56 59 60 56 53 54 54 52 49
94 81 68 43 45 51 58 53 54 51 48 46 44 40 39 48 50 56 58 57 53 50 48 44 42 44 46 44 42 41 44 46 48 51 53 53 56 58 57 56 57 56 56 55
95 96 66 45 41 44 50 46 46 48 44 43 40 52 55 50 50 55 55 53 48 48 48 41 38 42 45 40 38 42 46 47 46 48 53 53 52 54 57 61 60 59 58 58
92 96 84 45 38 39 43 69 46 47 48 45 56 70 64 55 52 54 50 46 47 44 40 35 35 40 41 39 40 45 47 49 47 48 49 51 54 55 56 59 60 62 61 60
88 93 82 55 44 42 64 54 54 51 51 51 59 56 46 54 58 52 50 47 45 39 36 32 34 38 40 42 43 48 50 49 48 48 50 52 57 59 60 61 63 64 63 60
85 94 92 52 50 56 46 48 49 48 46 49 55 56 60 60 60 58 53 51 43 38 35 32 33 37 40 41 40 47 52 50 52 55 54 52 53 52 58 64 69 69 69 65
73 72 48 49 47 42 48 55 47 46 47 54 60 63 60 60 62 59 53 51 40 36 34 34 34 36 42 38 44 51 53 51 52 59 59 58 62 63 65 66 75 77 77 75
66 55 52 50 49 47 47 50 49 50 55 60 60 59 58 62 63 64 56 46 38 38 40 36 32 36 40 42 45 50 48 49 52 64 69 65 69 71 77 77 81 84 83 79
69 54 51 51 52 54 54 57 56 56 56 59 62 66 65 63 61 60 48 42 40 39 39 36 31 33 38 43 47 48 51 55 54 60 69 72 73 74 76 77 81 88 88 87
66 48 54 52 56 56 60 62 60 65 60 61 58 60 60 67 59 48 46 38 40 38 37 35 37 37 37 38 42 47 51 54 58 66 71 76 79 79 68 77 81 85 87 90
59 49 58 63 59 55 59 62 62 64 66 64 57 57 57 52 47 45 41 40 42 40 37 36 39 37 36 30 36 44 50 47 51 60 70 79 80 87 93 88 83 74 84 91
54 53 60 58 69 64 60 57 55 54 54 51 49 47 44 45 50 54 50 46 43 44 43 43 38 33 28 30 36 42 48 47 50 50 62 74 82 92 99 97 94 79 61 68
68 66 69 60 52 50 50 54 60 61 58 55 52 54 53 54 48 50 48 43 42 41 43 45 48 38 41 38 43 47 50 54 49 49 61 67 83 91 96 95 91 87 77 63
68 70 65 64 59 55 53 52 53 55 57 55 53 52 48 38 38 43 42 41 49 48 43 45 45 41 44 40 44 51 52 50 57 68 68 73 82 92 94 84 77 76 80 82
76 70 63 68 70 57 50 47 48 51 51 52 48 45 44 45 48 47 45 46 48 47 48 50 51 48 48 50 51 54 58 61 67 74 73 75 82 88 88 87 84 79 77 77
87 89 90 63 48 46 47 48 50 50 49 43 42 44 46 51 52 51 52 52 54 56 56 54 53 51 49 49 51 59 66 70 73 76 76 81 84 88 94 89 84 82 83 83
57 67 67 64 62 58 56 54 53 53 58 51 48 54 54 57 59 59 58 56 56 57 52 50 50 53 55 56 60 68 73 74 79 82 83 86 88 88 89 90 87 77 75 81
67 66 65 66 63 60 60 57 58 63 64 58 58 62 65 62 59 57 57 60 59 58 58 60 60 64 66 66 65 71 74 77 83 84 86 88 91 89 84 90 86 80 79 85
77 72 67 66 63 62 64 59 62 68 62 63 63 61 60 59 61 63 68 72 64 65 67 69 70 70 69 71 73 78 81 85 86 91 93 94 88 81 82 80 76 80 88 88
81 77 67 67 66 64 62 57 57 62 66 67 66 68 70 71 70 72 71 74 68 68 72 73 74 73 77 84 88 90 90 94 96 98 98 90 84 85 86 81 82 87 90 94
62 58 60 63 68 68 63 62 61 65 69 67 68 68 70 70 71 77 78 60 68 69 74 78 80 81 87 88 91 92 95 97 97 96 93 89 89 89 88 87 87 96 99 99
62 60 59 60 64 70 76 64 63 65 68 67 67 68 75 78 77 74 78 74 73 73 76 79 81 85 88 91 93 96 97 98 98 97 95 89 90 94 95 97 99 99 99 99
62 64 66 74 76 73 66 67 72 74 77 77 75 69 70 76 82 69 72 75 75 79 81 74 78 89 90 90 92 95 95 95 96 99 97 91 94 98 98 99 98 99 99 99
68 66 61 59 61 62 63 65 69 67 67 70 70 72 74 75 75 79 79 80 83 82 85 84 84 85 89 91 92 94 96 99 99 99 98 98 100 100 99 98 98 98 98 99
61 61 63 65 64 66 71 75 81 80 76 75 77 74 75 76 76 77 78 82 84 84 84 84 85 86 89 91 93 96 98 95 97 99 100 100 99 98 98 98 97 97 97 97

GFSNGP_925_rhum_183.txt.gz
RH
64 62 58 55 57 69 85 69 67 63 71 50 55 63 60 53 51 52 57 58 61 63 61 51 49 46 47 46 46 46 46 47 50 53 60 65 67 66 63 60 58 56 53 50
83 68 69 78 72 67 60 62 68 56 58 41 40 46 53 54 52 54 58 59 58 59 53 51 48 46 46 44 41 40 45 48 49 48 48 51 54 59 61 60 58 57 56 55
89 76 76 68 69 71 70 68 60 74 53 47 50 47 48 48 48 58 58 58 59 58 52 49 42 42 44 45 39 39 41 42 43 44 48 51 51 52 52 55 57 57 57 57
94 78 72 41 46 56 61 60 58 56 53 50 50 45 46 43 49 58 57 58 60 52 50 46 39 38 40 40 36 39 42 44 44 46 46 45 48 51 52 54 57 58 58 59
96 96 68 42 49 56 60 46 52 53 49 49 47 44 57 54 59 58 57 55 53 48 49 44 35 38 40 36 37 42 47 48 48 50 51 52 56 58 58 60 61 61 61 60
95 98 84 43 39 38 42 66 46 50 50 49 54 70 60 51 56 58 53 51 49 46 47 39 32 38 38 36 36 40 48 52 49 51 53 52 53 52 55 59 62 63 63 62
90 95 83 57 42 43 60 55 49 49 48 52 63 59 49 49 56 54 52 49 47 48 46 36 34 38 39 38 37 41 47 50 46 48 57 54 54 54 57 59 61 61 62 58
84 95 92 52 54 58 47 46 48 49 49 50 52 53 56 62 65 62 58 53 49 53 43 37 34 36 38 38 32 40 45 44 42 44 52 56 53 48 46 52 60 62 69 67
74 72 49 53 46 44 46 52 49 49 50 51 54 60 60 64 65 62 57 55 52 50 41 35 33 33 37 30 35 40 46 42 39 43 45 55 61 57 61 61 72 78 84 86
69 58 54 55 51 50 47 51 53 57 60 60 64 64 66 66 67 66 60 57 53 44 42 37 35 36 34 32 34 42 46 43 38 42 44 50 59 59 63 63 73 84 91 92
74 59 59 56 56 52 56 61 65 64 65 65 67 69 66 65 65 62 59 52 45 44 42 40 35 32 29 32 38 47 47 44 43 41 44 46 47 52 54 48 64 85 92 92
64 53 57 53 56 58 62 58 62 71 72 69 70 74 62 66 61 57 52 47 44 43 45 42 38 34 30 33 38 44 50 47 45 50 47 51 60 58 42 46 49 56 71 93
57 57 61 65 58 56 63 69 64 62 61 62 56 58 55 56 50 51 52 52 50 47 48 49 46 41 33 39 34 36 44 45 48 54 56 57 56 68 83 41 42 46 44 59
60 63 69 64 74 62 61 59 55 54 52 52 52 51 51 54 54 56 55 45 40 42 46 45 45 45 43 45 45 46 51 53 54 54 59 63 64 66 72 89 89 79 53 68
72 70 72 60 56 56 52 54 58 57 54 58 48 55 56 63 64 60 51 43 44 46 48 48 50 46 45 47 48 50 53 55 52 53 60 64 76 78 80 88 94 92 85 78
68 67 72 78 76 70 62 61 64 61 51 48 48 47 45 44 47 46 46 47 52 50 49 53 54 51 51 52 52 53 54 51 59 70 71 78 82 86 87 91 91 90 86 83
87 90 81 63 54 48 50 48 52 54 52 54 52 51 48 49 51 52 50 47 48 51 54 55 56 57 55 54 54 57 60 61 68 73 77 81 87 88 88 91 89 89 90 86
68 76 83 65 55 52 51 50 49 50 52 51 53 55 54 53 54 52 53 54 56 61 61 59 55 54 53 56 60 64 67 70 73 80 81 86 88 89 92 92 93 94 89 89
53 59 58 70 65 66 65 63 60 55 52 54 59 64 60 58 59 59 61 68 70 68 61 55 56 61 63 64 69 74 76 79 84 85 87 91 92 92 93 94 85 80 78 81
68 64 65 68 66 66 59 58 58 59 59 58 62 68 68 63 63 65 64 68 63 62 61 60 62 67 70 69 69 78 81 85 89 92 94 95 96 98 95 80 75 75 78 83
81 76 77 75 75 65 57 59 62 64 62 61 66 67 65 62 62 64 70 74 58 59 62 66 68 69 70 73 75 84 90 94 97 99 100 99 99 96 85 84 83 86 82 83
83 84 80 76 74 68 64 66 68 69 68 66 64 66 69 71 71 72 69 73 65 54 67 70 68 69 75 85 91 93 96 99 100 100 98 98 96 81 79 82 84 88 87 88
74 74 73 71 71 67 61 63 67 70 71 69 70 70 72 72 71 74 74 62 66 64 69 74 78 85 90 88 90 93 97 99 99 98 98 99 99 90 84 88 88 92 95 95
67 63 63 60 64 70 74 65 65 66 68 70 73 74 79 79 75 74 78 75 75 71 73 78 83 87 88 90 92 94 98 100 100 100 100 99 95 89 92 92 98 98 99 99
66 66 65 72 79 77 72 70 71 70 68 70 72 72 73 78 83 72 77 79 78 84 82 73 79 91 90 89 89 92 96 98 100 100 100 98 95 93 96 99 99 99 99 99
68 65 62 64 66 66 68 71 74 71 72 74 74 74 73 76 78 82 81 82 85 82 86 84 84 86 90 93 95 98 98 99 97 95 96 94 96 99 100 100 98 98 98 98
66 66 68 69 66 66 67 69 72 74 72 74 76 73 74 77 80 82 84 87 88 88 87 86 86 86 88 91 94 93 90 91 94 95 95 98 100 100 99 98 97 97 97 97

GFSNGP_925_rhum_186.txt.gz
RH
61 58 56 54 54 78 82 68 64 69 70 50 55 65 61 54 55 54 54 58 61 62 62 52 48 40 39 41 40 38 39 41 44 46 49 51 52 57 61 64 62 59 56 54
83 69 76 82 73 63 68 70 63 54 58 42 44 49 52 52 54 54 54 60 60 60 56 49 47 42 40 40 41 37 40 42 44 42 42 44 48 51 52 54 57 61 61 61
88 79 77 72 69 72 73 68 63 76 56 48 50 51 52 50 50 52 52 60 61 61 56 48 47 43 39 39 42 36 40 41 44 46 44 45 46 48 52 55 58 58 57 58
94 79 74 43 49 62 64 64 62 60 57 54 52 50 52 50 51 48 57 61 62 56 52 46 46 39 38 39 38 36 42 44 44 45 48 47 44 43 45 50 54 58 60 60
96 97 69 44 56 66 64 46 57 57 51 54 50 47 51 48 49 48 55 56 53 50 48 48 48 36 37 38 38 36 41 44 45 44 47 51 48 48 47 51 51 52 54 55
97 100 85 41 39 41 43 66 44 55 52 51 54 67 60 50 50 55 48 52 52 50 49 52 45 36 37 39 38 34 39 42 43 39 40 48 51 46 46 44 43 43 40 42
89 96 84 56 40 44 60 50 47 50 50 53 62 58 52 57 58 53 52 52 53 53 52 51 44 38 38 39 36 32 37 40 38 36 38 40 49 48 44 43 44 40 40 33
82 91 92 57 54 58 49 50 49 50 49 53 58 60 58 59 59 58 62 58 56 58 55 50 41 39 35 37 30 33 36 41 41 37 34 37 43 46 50 48 52 51 57 49
75 71 50 58 50 50 54 52 47 49 54 62 67 67 64 63 64 66 62 61 57 56 55 44 38 36 38 30 29 32 33 36 41 41 37 36 43 46 56 54 62 62 65 68
68 58 54 58 52 52 49 51 51 56 64 68 72 70 72 74 73 73 64 61 58 52 48 45 36 39 35 33 35 33 30 31 35 41 38 38 39 44 56 60 58 62 67 73
73 64 58 59 55 53 54 60 66 67 69 72 76 79 79 80 78 69 63 58 50 47 45 43 41 42 41 40 41 41 44 37 37 41 39 39 38 41 44 44 46 52 52 68
52 57 56 60 55 58 66 65 62 70 73 67 68 70 68 72 65 63 56 50 50 51 51 48 49 50 50 50 47 44 44 42 42 46 49 55 59 56 48 48 40 38 40 67
53 45 59 64 59 60 66 69 63 59 58 56 54 55 53 58 52 52 55 55 56 55 51 48 45 40 37 44 46 47 48 49 52 57 62 66 68 74 79 48 56 56 43 43
62 64 70 73 71 62 61 58 58 58 55 55 55 51 56 61 57 57 59 51 50 45 42 43 43 43 36 38 45 49 51 52 59 62 66 67 68 71 75 79 78 69 48 68
65 68 70 64 66 66 61 65 68 62 62 58 46 52 52 56 55 51 47 45 43 45 43 42 44 42 40 47 53 55 57 59 59 61 66 67 74 80 86 91 91 90 86 69
88 76 71 66 60 54 49 50 58 54 53 54 53 51 50 51 52 52 51 50 54 52 49 51 56 51 52 54 56 57 57 57 67 74 76 79 83 86 91 93 94 93 93 89
81 60 64 61 57 53 53 50 49 51 53 54 52 49 51 54 56 57 53 48 49 50 53 55 54 45 48 51 55 58 62 67 73 76 78 80 84 89 90 92 94 93 93 90
44 44 50 54 56 57 57 54 55 57 60 57 56 56 59 64 64 59 57 54 55 56 55 48 54 52 52 56 60 67 73 76 79 82 83 87 91 92 95 97 97 98 94 86
57 59 58 58 61 65 65 66 67 64 64 63 64 64 62 63 65 65 64 65 67 71 62 52 52 56 56 59 65 72 81 84 87 88 90 93 94 96 98 99 99 95 91 88
69 67 65 67 66 72 72 69 70 61 57 58 62 65 68 66 66 66 67 71 68 63 59 58 55 57 62 65 67 74 82 86 91 94 97 98 97 95 92 92 86 82 81 83
88 83 78 73 70 66 68 67 68 64 60 62 67 68 67 65 64 68 72 75 66 65 65 66 69 70 72 71 73 79 88 94 99 100 97 95 94 92 93 91 85 83 84 86
85 83 76 73 75 74 64 62 66 68 68 69 70 73 74 73 72 73 73 77 70 66 74 75 72 71 74 82 92 95 98 100 100 96 93 91 88 88 87 87 89 83 83 87
72 72 73 73 76 74 70 69 67 71 74 74 75 75 75 74 75 80 82 67 71 70 76 78 78 77 91 91 92 94 96 99 96 94 93 93 94 96 97 92 91 94 94 95
72 72 72 66 67 72 82 70 69 69 71 74 75 75 80 81 79 79 80 79 80 80 81 85 86 87 90 92 93 94 98 100 99 99 100 100 97 97 96 98 99 97 97 98
68 68 70 76 79 76 72 72 73 73 72 71 69 69 72 75 85 76 77 80 81 85 87 83 91 93 94 91 89 90 93 97 99 100 100 100 99 99 98 98 98 99 99 99
70 69 66 65 68 68 69 71 74 71 72 76 76 74 76 78 80 82 83 85 88 90 94 92 91 93 96 93 93 94 96 96 95 96 96 97 100 99 99 100 99 98 98 97
69 70 72 74 72 72 73 74 77 75 69 68 69 70 73 77 80 82 85 88 89 92 94 94 96 95 95 95 96 97 96 94 99 100 100 100 99 99 99 99 98 98 96 96

GFSNGP_925_rhum_189.txt.gz
RH
58 57 55 52 53 81 74 63 65 67 68 47 56 63 60 55 55 55 55 54 58 63 60 53 47 44 38 35 38 37 32 36 39 39 39 40 41 47 51 53 54 58 60 60
83 71 78 82 72 61 69 62 56 51 55 38 39 48 52 51 52 54 53 52 57 62 58 55 48 45 42 35 34 37 34 38 39 37 37 36 36 39 43 47 50 52 52 55
85 77 78 72 74 72 68 67 59 72 53 48 48 50 50 49 51 51 50 49 55 61 57 51 47 45 46 36 37 36 33 38 40 41 37 40 39 39 38 40 44 46 48 52
92 77 77 37 52 61 64 62 60 61 56 54 48 47 50 51 53 50 47 48 53 56 54 51 48 47 45 38 36 33 30 34 36 39 36 38 43 41 39 41 42 45 44 44
93 97 70 42 62 70 67 48 55 55 48 52 51 48 48 46 51 46 46 47 51 51 54 52 50 49 43 37 38 37 32 32 34 37 37 36 38 45 43 41 38 38 39 39
98 100 87 37 40 45 48 62 50 57 56 55 56 64 58 50 55 55 52 50 50 52 56 53 49 51 41 37 39 37 31 32 37 40 42 38 35 37 42 44 39 38 34 34
88 97 84 58 41 46 57 44 51 53 51 56 62 58 52 55 60 53 52 53 56 58 57 53 52 52 43 39 38 32 31 32 36 41 42 36 34 32 35 43 44 37 34 26
80 90 91 56 52 57 47 52 55 57 55 60 60 62 63 63 64 60 60 60 59 62 58 53 53 48 42 40 31 34 31 31 32 33 38 40 40 34 35 42 45 38 37 30
74 69 50 59 50 48 54 54 49 52 54 58 66 68 67 69 68 66 68 67 65 65 60 54 50 45 42 34 33 35 41 46 39 42 33 34 42 40 44 44 51 53 56 54
70 59 57 56 54 53 52 53 50 54 57 62 70 72 76 78 78 79 73 69 61 59 55 50 42 40 41 42 44 43 44 42 40 37 35 34 37 40 43 47 54 62 64 60
76 64 54 53 54 49 51 59 62 63 65 67 72 80 79 80 76 72 68 63 56 54 53 50 50 50 47 42 43 48 47 44 41 40 42 43 43 47 53 49 52 53 55 58
53 42 44 52 53 57 64 68 69 70 71 67 68 70 64 68 63 62 58 56 58 57 58 54 50 43 37 34 36 46 51 49 45 48 50 54 57 57 48 51 51 60 64 83
52 45 53 58 61 62 66 66 64 63 59 56 55 57 58 60 57 60 56 50 49 48 44 41 41 40 35 32 37 45 52 52 52 55 62 65 65 72 74 63 63 74 75 77
62 64 71 73 79 72 81 73 65 62 61 58 54 50 53 57 52 52 51 46 48 48 44 40 40 40 33 35 40 44 47 50 60 63 68 69 72 74 76 78 78 76 66 79
85 87 95 98 100 100 92 68 67 55 47 49 46 51 51 57 57 52 48 48 48 47 43 42 44 41 33 37 44 51 56 60 59 59 65 74 77 82 86 87 89 87 87 85
99 100 100 99 95 86 66 50 52 50 47 46 49 49 50 53 54 56 54 52 58 54 49 51 52 42 43 48 51 56 58 58 73 75 77 78 82 87 89 88 88 89 92 92
95 91 92 72 53 51 49 49 51 51 50 55 56 54 57 60 62 62 60 56 56 56 56 57 56 47 53 52 51 56 62 64 72 78 80 81 84 87 88 89 91 92 92 91
78 53 48 52 59 66 64 62 63 60 61 62 64 63 67 69 68 66 65 63 64 66 63 51 48 56 59 56 56 60 66 72 78 81 82 87 90 93 96 98 98 97 94 94
58 59 56 58 58 64 70 69 67 65 66 70 66 66 62 64 65 67 68 73 77 76 66 60 61 63 62 61 68 71 75 82 85 88 90 93 95 96 97 96 95 92 89 93
72 71 70 73 70 69 66 62 65 69 66 69 65 68 70 66 66 68 70 72 68 66 64 67 68 71 74 72 72 77 80 85 91 95 97 98 95 90 88 88 94 95 91 88
89 85 83 74 65 62 64 63 67 71 66 66 70 69 68 68 71 74 78 76 65 66 70 73 74 75 77 78 79 80 82 91 99 100 96 92 86 86 88 90 91 93 96 93
83 85 78 71 70 70 64 61 65 70 71 70 70 72 75 77 76 76 74 77 72 69 78 79 79 78 84 90 94 95 96 96 97 98 91 86 85 92 95 94 95 93 94 96
74 76 72 72 72 71 67 69 70 74 77 76 76 76 76 74 75 79 78 67 72 76 81 86 89 92 92 91 96 98 99 100 98 94 91 90 94 96 96 97 95 96 97 96
68 66 66 64 68 77 86 72 71 70 71 73 77 76 80 82 79 78 79 83 84 85 87 90 90 92 90 91 93 99 100 100 100 99 99 100 100 99 97 96 96 98 95 96
67 67 70 78 82 78 75 74 76 77 77 77 73 70 72 76 85 76 77 81 84 87 89 89 93 94 97 98 99 98 98 99 98 100 99 100 100 100 99 98 97 97 98 99
74 74 71 70 72 71 72 74 77 74 74 77 77 76 76 76 76 81 84 86 87 89 94 94 95 99 100 100 99 100 99 98 99 97 96 99 100 100 100 100 100 100 98 98
70 72 77 79 78 78 81 84 84 79 72 71 72 73 76 79 81 84 86 93 97 99 99 98 99 99 100 100 100 99 98 100 100 100 99 99 99 98 95 98 99 98 98 97

GFSNGP_925_rhum_192.txt.gz
RH
39 40 41 41 42 55 61 49 67 65 65 42 56 78 55 37 39 40 39 39 39 41 42 48 49 48 49 50 50 50 50 48 48 51 51 50 49 52 56 60 64 67 67 66
55 53 57 61 53 46 45 47 43 41 43 29 29 30 34 37 38 39 39 37 37 39 45 49 50 49 50 50 47 41 49 48 50 50 46 51 53 54 53 54 56 61 60 64
68 61 59 53 39 50 46 43 45 50 35 29 38 39 38 38 40 39 37 35 35 37 42 46 49 51 48 49 42 42 48 46 47 51 52 50 53 53 52 51 54 53 56 59
70 57 51 25 40 42 44 40 42 40 35 36 33 33 35 35 39 38 39 38 36 38 42 45 50 50 48 49 43 45 45 43 43 50 54 53 51 52 54 54 54 53 52 50
69 68 43 28 39 52 54 32 37 41 36 34 37 40 37 36 41 43 42 41 42 44 47 50 50 49 50 48 43 42 38 35 38 48 52 53 49 48 52 57 57 57 52 46
74 82 56 28 37 42 45 47 28 37 36 36 43 45 35 41 43 44 44 46 48 49 54 54 52 53 53 46 42 40 37 35 39 47 51 52 48 47 51 57 57 59 48 32
70 71 50 41 36 41 43 23 42 39 37 42 44 36 42 43 44 46 48 51 54 58 57 54 56 57 52 48 45 42 37 36 33 33 38 47 50 48 50 50 52 52 52 48
68 71 66 36 45 45 30 44 42 42 42 47 45 47 49 48 50 50 53 56 61 63 60 61 63 62 56 51 47 36 36 35 45 50 50 49 51 48 45 45 45 42 38 40
48 46 41 42 34 33 41 42 43 43 41 44 48 52 51 54 54 55 58 60 61 59 58 55 53 53 50 46 45 45 45 45 47 47 46 47 46 41 41 41 42 41 39 40
48 34 44 38 38 39 40 40 39 40 41 46 51 50 56 58 56 58 60 60 60 55 49 46 46 49 49 49 49 48 46 45 46 46 44 42 43 50 48 45 44 44 44 45
47 38 43 36 35 38 37 42 43 42 46 51 56 59 62 59 54 52 54 56 56 54 52 48 47 47 47 46 44 42 40 41 44 46 44 42 42 43 41 41 46 49 51 54
56 38 38 36 31 42 45 47 51 54 59 62 62 62 58 50 50 51 51 54 50 44 43 39 40 40 40 45 42 44 41 41 44 44 41 43 45 41 42 51 53 57 58 78
48 40 41 42 55 56 61 64 68 73 85 98 94 77 68 47 46 51 51 47 46 45 46 46 45 44 43 42 38 47 46 41 41 45 41 40 44 46 52 54 60 64 72 78
49 59 66 59 82 96 100 100 99 98 100 99 73 55 47 45 46 45 44 46 48 50 51 51 50 49 44 41 46 51 51 54 60 53 51 52 52 57 60 62 63 64 65 72
100 100 100 100 99 99 93 84 77 78 60 48 46 48 48 48 46 46 48 52 54 56 56 55 53 51 49 51 54 53 52 53 53 56 60 64 66 69 70 69 70 70 73 72
97 93 87 88 89 78 72 73 62 46 47 46 47 50 53 54 50 50 51 53 57 53 51 54 55 50 50 54 58 60 61 63 71 69 70 67 68 70 70 70 69 71 74 76
77 60 44 38 37 39 41 43 49 49 49 48 46 47 55 54 53 52 47 45 50 54 57 59 56 53 55 57 60 64 65 64 65 69 71 71 72 72 74 75 76 78 81 82
75 70 66 53 53 53 52 48 49 48 48 48 51 54 54 52 48 48 49 51 55 58 58 56 57 60 62 64 66 69 71 70 70 70 72 75 76 78 80 82 86 86 85 85
74 70 69 63 54 60 61 54 51 49 50 52 55 55 52 51 51 53 54 56 60 62 59 55 55 61 65 68 72 74 75 75 76 75 76 80 84 84 86 88 88 88 90 91
76 73 70 72 74 70 59 46 47 50 50 53 57 58 55 54 54 55 56 56 57 57 58 63 66 70 74 75 80 80 79 78 78 77 78 81 86 86 86 86 91 96 94 92
76 71 68 67 63 56 53 51 52 53 54 58 60 60 59 58 59 60 62 61 56 56 62 68 74 77 79 80 84 85 87 86 84 86 90 92 89 87 89 89 90 91 95 93
73 72 70 69 69 66 58 57 59 62 62 63 63 63 65 66 66 66 66 67 66 67 71 75 78 81 86 90 92 94 95 95 92 89 87 89 94 94 93 93 92 88 89 92
57 57 58 60 60 60 58 63 67 70 73 74 73 72 70 68 68 69 67 61 65 70 78 83 84 86 87 91 97 95 96 98 96 95 98 93 95 95 96 93 90 89 88 86
57 58 58 59 62 68 68 64 64 68 73 77 78 76 81 76 73 72 73 75 78 81 83 85 87 89 91 98 100 99 99 99 99 99 98 98 99 99 96 92 90 90 90 88
64 65 65 69 71 67 65 67 71 73 72 72 74 76 79 82 81 74 76 77 79 82 86 88 90 90 95 99 99 99 98 98 99 99 99 100 99 98 97 97 96 96 96 98
71 69 66 67 68 68 67 68 70 67 68 70 71 72 73 73 75 77 80 82 84 87 91 95 94 96 98 99 98 98 98 98 99 100 99 99 99 99 98 99 100 98 96 98
69 71 75 76 72 74 78 78 80 77 70 68 69 72 76 78 79 80 81 88 92 98 99 99 99 99 99 99 99 99 99 99 100 100 99 99 100 100 100 98 97 98 99 98

GFSNGP_925_rhum_195.txt.gz
RH
31 31 31 36 37 44 53 46 67 43 70 44 55 79 60 37 32 34 35 34 34 35 36 36 43 46 46 48 51 50 49 46 44 46 47 45 45 47 48 49 50 56 59 58
39 31 37 45 39 36 36 41 39 38 39 26 26 25 30 31 30 34 34 33 32 33 34 40 44 47 48 48 51 50 48 46 46 49 48 46 46 48 47 46 45 51 51 52
58 46 49 53 42 39 36 32 32 44 33 23 23 31 30 30 32 34 33 32 31 32 34 38 42 44 47 47 49 49 44 45 44 43 46 47 46 47 46 47 47 48 47 49
55 42 52 22 25 28 31 32 29 29 27 24 23 25 26 27 31 33 33 32 33 35 37 38 40 42 46 46 48 46 47 45 42 42 47 48 50 48 46 48 50 51 51 50
60 52 33 29 22 38 40 28 26 29 27 27 25 30 33 29 28 30 34 36 37 38 40 41 43 43 45 45 45 43 40 37 34 36 43 46 48 46 44 48 51 52 52 51
49 69 47 32 35 35 40 42 23 21 22 26 27 47 30 28 33 38 38 40 41 42 45 46 46 47 48 48 47 42 40 38 33 34 44 45 44 45 45 48 50 48 48 47
66 66 42 27 31 36 38 25 32 33 30 30 34 33 36 35 38 39 41 44 46 50 49 50 52 53 53 51 48 45 43 38 39 40 43 46 47 47 48 45 44 45 44 43
63 60 57 29 39 40 30 30 34 34 34 36 33 33 41 41 42 43 45 48 52 56 56 56 58 60 57 54 51 47 43 43 42 44 49 50 47 48 47 44 41 40 38 37
43 37 29 36 32 27 29 33 34 32 32 35 38 40 41 44 45 47 50 51 53 53 53 51 49 48 47 45 43 45 45 46 47 47 46 46 45 44 41 38 36 36 36 38
42 32 29 26 27 28 30 34 32 32 32 34 37 37 41 45 49 50 51 52 54 49 46 45 45 47 48 47 48 45 40 38 36 36 37 38 37 39 39 39 38 38 40 42
45 38 33 31 30 30 31 33 37 34 37 37 39 42 48 54 53 51 53 52 51 49 46 39 34 34 34 36 38 38 36 35 35 35 36 36 35 35 34 32 32 36 41 45
60 44 46 46 43 44 56 54 62 63 60 66 78 84 88 90 92 84 65 48 43 38 37 36 35 34 34 35 37 39 37 35 34 35 36 34 34 32 33 35 36 41 44 54
93 77 62 72 89 96 92 99 96 98 100 100 99 98 97 79 58 55 54 50 43 40 42 43 43 44 42 42 41 42 43 41 40 39 35 33 33 34 40 42 46 50 54 59
90 71 73 95 99 100 100 99 99 96 92 90 88 80 69 58 52 49 44 45 48 46 46 47 48 49 48 47 48 49 48 49 52 53 52 52 49 48 50 55 58 58 60 62
90 91 98 96 82 76 63 63 66 64 64 69 62 62 67 66 58 56 50 47 50 53 53 50 49 50 48 48 49 50 52 50 49 51 54 55 57 60 62 64 67 68 67 65
85 76 62 46 36 32 30 31 36 37 38 39 42 40 40 43 49 49 46 45 46 45 42 44 46 44 46 49 50 52 54 56 59 62 66 68 68 67 69 69 69 69 68 68
73 48 38 35 39 42 42 41 41 40 39 40 41 41 42 43 45 45 41 39 41 43 45 47 47 48 50 52 53 56 59 61 62 64 68 69 70 70 70 72 73 74 75 77
63 57 55 56 58 52 47 44 47 43 37 38 40 42 44 44 42 42 42 41 42 46 48 47 47 48 52 56 59 62 64 66 68 71 72 73 72 72 75 78 79 78 78 78
63 64 63 63 63 60 59 58 56 53 41 39 43 46 46 47 48 48 45 46 48 51 49 45 45 48 56 60 65 70 72 74 74 73 73 73 74 78 78 77 79 81 83 81
57 59 64 63 64 56 52 52 49 42 40 40 42 46 47 46 46 46 48 50 50 50 50 54 58 62 64 68 72 76 78 80 80 78 76 76 75 75 77 81 83 83 86 89
56 51 50 50 50 46 46 46 45 44 44 48 49 49 51 52 54 56 58 57 52 52 55 61 65 68 71 74 79 82 85 89 91 95 97 92 93 92 88 84 86 87 89 90
59 69 68 66 67 65 60 57 54 53 54 54 56 58 60 62 62 61 60 60 58 58 61 64 69 73 77 80 91 99 100 99 99 97 96 96 94 94 95 96 95 91 89 90
46 46 46 47 49 50 49 52 55 57 63 66 69 69 69 67 66 68 68 61 64 69 73 78 80 79 80 85 97 99 99 99 99 99 99 99 99 99 99 98 95 96 96 87
52 52 53 53 56 61 63 59 58 60 62 67 73 75 80 77 72 71 71 71 72 74 77 80 82 84 94 99 99 99 99 99 98 98 97 93 97 99 98 97 94 92 92 90
61 64 66 70 71 68 62 60 61 62 62 62 63 64 65 73 80 77 78 79 80 82 84 85 85 90 98 99 98 99 99 96 93 94 98 98 99 98 95 98 97 99 99 99
69 68 67 68 68 68 68 68 68 66 66 65 65 66 67 68 70 71 74 76 80 86 96 98 98 99 100 100 99 99 99 99 98 96 95 99 99 98 98 99 99 99 99 97
66 64 68 71 73 73 72 72 78 87 81 75 75 73 76 78 77 75 76 77 83 90 94 95 99 98 95 99 99 99 99 99 98 98 99 99 100 99 98 98 99 98 98 98

GFSNGP_925_rhum_198.txt.gz
RH
41 40 36 46 48 53 56 47 66 34 67 48 51 62 56 47 47 46 46 46 48 49 51 42 40 43 45 45 44 46 45 42 37 37 39 36 36 36 38 38 41 44 45 47
52 43 45 49 47 43 47 48 44 40 43 29 28 29 33 50 46 45 42 44 44 44 44 42 43 48 47 47 47 49 49 44 40 39 38 39 37 37 34 36 40 42 42 44
76 46 49 69 53 45 43 40 38 53 40 29 32 32 37 39 40 41 41 42 42 40 40 41 43 42 44 46 48 50 51 48 43 42 39 39 39 40 37 37 39 40 42 44
81 47 73 35 27 33 38 39 34 32 29 27 28 30 30 33 34 38 38 38 37 38 37 37 40 42 43 44 48 50 50 47 46 42 39 38 42 42 39 40 43 43 42 43
85 85 55 41 33 37 41 40 32 34 33 31 30 32 37 30 32 34 37 39 39 40 41 41 42 43 44 46 46 46 46 42 41 38 37 37 41 42 42 44 41 39 36 37
65 84 80 36 36 35 41 55 42 40 39 39 38 50 44 39 35 34 41 40 42 43 44 45 46 47 47 48 48 49 47 42 41 36 32 35 40 37 42 45 45 45 45 43
81 86 66 33 40 38 41 47 43 42 44 45 48 43 42 38 40 40 42 44 46 48 51 50 52 54 56 55 53 51 46 44 42 36 36 36 39 48 49 48 48 48 45 42
81 81 75 40 40 43 41 38 39 41 42 46 45 44 42 43 45 47 47 48 50 54 56 57 57 58 61 60 56 53 49 43 38 37 38 42 47 50 49 47 49 47 44 41
61 66 42 37 34 34 36 40 43 41 40 41 42 44 47 52 54 55 51 53 53 56 56 54 54 50 50 47 46 43 44 44 44 46 47 47 48 48 47 46 45 42 41 40
63 43 46 43 35 40 66 60 60 65 60 52 52 46 45 47 61 63 57 55 54 53 50 48 46 46 48 48 48 47 48 46 41 39 37 36 37 39 40 41 42 42 43 42
57 51 54 66 94 90 78 85 90 84 86 96 92 96 97 95 96 96 98 98 90 77 60 45 40 37 34 35 34 35 36 37 36 35 35 35 36 36 36 36 36 36 36 37
94 98 100 100 99 91 92 95 95 96 95 96 97 99 97 100 98 99 100 94 82 69 56 47 42 40 41 41 38 37 39 40 40 38 36 36 35 35 34 33 32 32 34 38
90 77 93 92 76 84 85 93 92 96 98 97 98 97 96 96 95 86 80 76 70 59 49 47 51 52 48 46 45 46 45 46 46 46 46 44 41 38 41 40 41 40 42 46
78 67 72 84 82 92 93 91 87 83 76 68 67 67 67 67 63 59 61 60 55 53 53 52 51 50 39 38 47 51 50 50 52 56 55 55 56 57 59 63 63 60 55 58
82 81 87 92 92 89 66 58 64 56 56 66 60 63 65 70 70 67 56 56 53 54 54 53 51 46 42 44 46 47 48 52 54 54 54 56 59 63 64 68 70 70 70 70
90 90 87 89 65 52 51 49 50 52 49 45 44 43 42 43 44 45 46 47 50 50 46 43 43 43 45 46 49 52 54 54 59 61 62 67 69 73 77 78 77 78 79 78
98 82 71 69 67 66 67 60 56 53 53 52 43 39 40 44 46 47 45 42 42 44 44 44 46 47 47 48 50 53 56 59 64 64 68 71 75 77 78 80 81 81 82 80
82 76 70 70 73 72 70 64 62 61 61 57 56 44 44 47 49 47 46 47 49 48 47 48 49 48 48 49 53 56 59 65 69 74 77 79 81 81 80 80 76 75 77 78
68 66 64 64 65 67 68 68 67 60 54 54 48 45 44 44 45 47 48 50 50 53 51 47 45 47 51 52 59 66 70 74 80 83 83 84 83 82 83 84 88 85 81 80
42 42 47 51 51 53 54 52 48 46 45 46 46 47 47 45 46 49 51 55 56 56 54 53 53 56 60 61 65 71 76 83 88 88 87 90 87 90 97 97 98 99 98 96
54 51 52 53 56 55 55 54 55 54 52 52 52 54 54 53 55 58 64 67 57 56 58 61 63 65 66 69 73 81 95 97 92 94 94 89 88 92 95 94 95 97 98 99
62 66 63 63 64 65 62 62 62 60 57 57 58 60 62 66 68 69 66 68 62 63 65 66 69 73 79 81 88 99 100 100 99 99 98 95 97 95 96 96 94 94 98 98
63 63 59 56 56 55 54 56 58 61 65 66 68 70 71 72 71 75 74 64 69 72 76 78 79 80 77 80 98 99 99 99 99 99 99 100 99 98 98 98 98 97 97 99
64 60 61 62 66 72 76 71 70 69 68 67 69 68 75 80 78 77 75 76 78 79 80 81 82 82 85 100 99 99 99 99 98 99 99 87 83 89 99 99 95 95 99 98
69 71 74 80 80 75 71 71 72 73 71 70 69 68 66 66 82 78 78 79 79 78 80 83 88 97 98 99 99 100 100 99 99 100 100 98 98 99 100 100 99 99 100 99
75 74 72 74 76 76 76 79 86 87 93 89 85 86 85 80 78 80 80 82 88 95 98 93 96 98 98 98 98 98 99 98 98 98 99 99 100 100 91 91 98 98 99 99
71 69 78 84 90 79 80 81 87 90 81 84 91 92 97 98 95 89 90 92 92 97 98 97 94 94 95 98 98 98 98 96 98 98 98 98 98 95 96 96 96 95 98 99